Location: Kergrach
(48.3833°N, 4.5167°W)
Time: 19:03:17
(UTC+00:00)

Cosmos 1869 - Pass Details

Date: 18 February 2020
Orbit: 525 x 558 km, 82.5° (Epoch: 05 April)

Event Time Altitude Azimuth Distance (km) Brightness Sun altitude
Rises 05:48:50 0° 192° (SSW) 2,712 6.7 -16.0°
Reaches altitude 10° 05:51:00 10° 194° (SSW) 1,818 5.8 -15.6°
Maximum altitude 05:55:00 76° 281° (W) 568 3.2 -14.9°
Drops below altitude 10° 05:58:59 10° 7° (N) 1,813 6.0 -14.3°
Sets 06:01:09 0° 9° (N) 2,704 6.9 -13.9°
